When you browse on this site, cookies collect data to enhance your experience and personalize the content and advertising you see.
Visit our Privacy Policy to learn more. By continuing to use the site, you agree to this use of cookies and data.
  • In Hungary
  • List of Countries
  • For 7 days
  • Water Temperature
  • Satellite Maps
  • Weather Map
  • News
  • Weather Widgets
  • user-avatar
    Login

    Hourly Weather Slopiec

    Today, 21 May, Tuesday

    Time Temperature Precipitation Wind Pressure Humidity
    00:00 +14°C° 0 mm 2 mps 731 mmHg 95%
    01:00 +13°C° 0 mm 2 mps 731 mmHg 96%
    02:00 +13°C° 0 mm 2 mps 731 mmHg 96%
    03:00 +13°C° 0 mm 1 mps 731 mmHg 95%
    04:00 +13°C° 0 mm 1 mps 731 mmHg 95%
    05:00 +13°C° 0 mm 1 mps 731 mmHg 92%
    06:00 +14°C° 0 mm 1 mps 731 mmHg 89%
    07:00 +15°C° 0 mm 1 mps 730 mmHg 87%
    08:00 +16°C° 0.4 mm 2 mps 730 mmHg 85%
    09:00 +17°C° 0.4 mm 2 mps 730 mmHg 83%
    10:00 +18°C° 0.4 mm 3 mps 730 mmHg 80%
    11:00 +17°C° 1.3 mm 3 mps 730 mmHg 83%
    12:00 +17°C° 1.3 mm 3 mps 730 mmHg 86%
    13:00 +17°C° 1.3 mm 3 mps 729 mmHg 89%
    14:00 +17°C° 1.6 mm 3 mps 729 mmHg 87%
    15:00 +18°C° 1.6 mm 3 mps 729 mmHg 86%
    16:00 +18°C° 1.6 mm 4 mps 729 mmHg 84%
    17:00 +17°C° 1.9 mm 3 mps 729 mmHg 87%
    18:00 +16°C° 1.9 mm 3 mps 728 mmHg 89%
    19:00 +16°C° 1.9 mm 3 mps 728 mmHg 91%
    20:00 +14°C° 0.5 mm 3 mps 728 mmHg 93%
    21:00 +14°C° 0.5 mm 2 mps 728 mmHg 95%
    22:00 +13°C° 0.5 mm 2 mps 728 mmHg 97%
    23:00 +13°C° 0.1 mm 2 mps 728 mmHg 97%

    Tomorrow, 22 May, Wednesday

    Time Temperature Precipitation Wind Pressure Humidity
    00:00 +13°C° 0.1 mm 2 mps 728 mmHg 97%
    01:00 +14°C° 0.1 mm 2 mps 728 mmHg 97%
    02:00 +14°C° 0.2 mm 2 mps 728 mmHg 97%
    03:00 +14°C° 0.2 mm 2 mps 728 mmHg 97%
    04:00 +14°C° 0.2 mm 2 mps 728 mmHg 98%
    05:00 +14°C° 0.4 mm 2 mps 728 mmHg 95%
    06:00 +15°C° 0.4 mm 2 mps 729 mmHg 93%
    07:00 +15°C° 0.4 mm 2 mps 729 mmHg 90%
    08:00 +15°C° 0.4 mm 2 mps 729 mmHg 89%
    09:00 +16°C° 0.4 mm 3 mps 729 mmHg 88%
    10:00 +16°C° 0.4 mm 3 mps 730 mmHg 87%
    11:00 +16°C° 0.3 mm 3 mps 730 mmHg 84%
    12:00 +17°C° 0.3 mm 4 mps 730 mmHg 81%
    13:00 +18°C° 0.3 mm 4 mps 730 mmHg 79%
    14:00 +18°C° 0.6 mm 4 mps 730 mmHg 79%
    15:00 +18°C° 0.6 mm 4 mps 730 mmHg 80%
    16:00 +18°C° 0.6 mm 4 mps 730 mmHg 81%
    17:00 +17°C° 0.7 mm 3 mps 730 mmHg 85%
    18:00 +16°C° 0.7 mm 2 mps 730 mmHg 88%
    19:00 +15°C° 0.7 mm 2 mps 730 mmHg 92%
    20:00 +15°C° 0.3 mm 2 mps 731 mmHg 94%
    21:00 +14°C° 0.3 mm 2 mps 731 mmHg 95%
    22:00 +13°C° 0.3 mm 2 mps 731 mmHg 97%
    23:00 +13°C° 0.3 mm 2 mps 732 mmHg 97%

    Day after tomorrow, 23 May, Thursday

    Time Temperature Precipitation Wind Pressure Humidity
    00:00 +13°C° 0.3 mm 2 mps 732 mmHg 97%
    01:00 +14°C° 0.3 mm 2 mps 732 mmHg 98%
    02:00 +13°C° 0.4 mm 3 mps 732 mmHg 97%
    03:00 +13°C° 0.4 mm 3 mps 733 mmHg 97%
    04:00 +13°C° 0.4 mm 3 mps 733 mmHg 97%
    05:00 +13°C° 0.6 mm 4 mps 733 mmHg 96%
    06:00 +14°C° 0.6 mm 4 mps 733 mmHg 95%
    07:00 +14°C° 0.6 mm 4 mps 734 mmHg 94%
    08:00 +14°C° 0.4 mm 4 mps 734 mmHg 93%
    09:00 +15°C° 0.4 mm 5 mps 735 mmHg 92%
    10:00 +15°C° 0.4 mm 5 mps 735 mmHg 90%
    11:00 +16°C° 0.8 mm 6 mps 735 mmHg 89%
    12:00 +16°C° 0.8 mm 6 mps 735 mmHg 88%
    13:00 +16°C° 0.8 mm 7 mps 736 mmHg 87%
    14:00 +15°C° 0.4 mm 7 mps 736 mmHg 89%
    15:00 +15°C° 0.4 mm 6 mps 736 mmHg 91%
    16:00 +14°C° 0.4 mm 6 mps 736 mmHg 93%
    17:00 +13°C° 0.2 mm 6 mps 736 mmHg 93%
    18:00 +13°C° 0.2 mm 6 mps 736 mmHg 93%
    19:00 +13°C° 0.2 mm 5 mps 737 mmHg 94%
    20:00 +13°C° 0.1 mm 5 mps 737 mmHg 94%
    21:00 +13°C° 0.1 mm 5 mps 737 mmHg 93%
    22:00 +13°C° 0.1 mm 5 mps 737 mmHg 93%
    23:00 +12°C° 0.1 mm 5 mps 737 mmHg 93%

    24 May, Friday

    Time Temperature Precipitation Wind Pressure Humidity
    00:00 +12°C° 0.1 mm 5 mps 737 mmHg 94%
    01:00 +12°C° 0.1 mm 5 mps 737 mmHg 94%
    02:00 +12°C° 0.2 mm 4 mps 737 mmHg 94%
    03:00 +11°C° 0.2 mm 4 mps 737 mmHg 93%
    04:00 +11°C° 0.2 mm 4 mps 737 mmHg 93%
    05:00 +10°C° 0.4 mm 4 mps 737 mmHg 92%
    06:00 +10°C° 0.4 mm 4 mps 737 mmHg 91%
    07:00 +10°C° 0.4 mm 4 mps 737 mmHg 90%
    08:00 +11°C° 0.1 mm 4 mps 738 mmHg 85%
    09:00 +12°C° 0.1 mm 3 mps 738 mmHg 80%
    10:00 +14°C° 0.1 mm 3 mps 738 mmHg 75%
    11:00 +14°C° 0 mm 3 mps 737 mmHg 72%
    12:00 +16°C° 0 mm 3 mps 737 mmHg 70%
    13:00 +17°C° 0 mm 3 mps 737 mmHg 67%
    14:00 +17°C° 0 mm 3 mps 737 mmHg 66%
    15:00 +18°C° 0 mm 3 mps 737 mmHg 65%
    16:00 +18°C° 0 mm 3 mps 736 mmHg 64%
    17:00 +17°C° 0 mm 3 mps 736 mmHg 68%
    18:00 +16°C° 0 mm 2 mps 736 mmHg 72%
    19:00 +15°C° 0 mm 2 mps 736 mmHg 77%
    20:00 +14°C° 0 mm 2 mps 736 mmHg 78%
    21:00 +14°C° 0 mm 2 mps 736 mmHg 80%
    22:00 +13°C° 0 mm 2 mps 736 mmHg 81%
    23:00 +12°C° 0 mm 2 mps 736 mmHg 83%

    25 May, Saturday

    Time Temperature Precipitation Wind Pressure Humidity
    00:00 +10°C° 0 mm 2 mps 736 mmHg 85%
    01:00 +10°C° 0 mm 2 mps 736 mmHg 88%
    02:00 +10°C° 0 mm 2 mps 736 mmHg 89%
    03:00 +10°C° 0 mm 2 mps 736 mmHg 90%
    04:00 +10°C° 0 mm 2 mps 735 mmHg 91%
    05:00 +12°C° 0 mm 2 mps 735 mmHg 86%
    06:00 +13°C° 0 mm 3 mps 735 mmHg 80%
    07:00 +16°C° 0 mm 3 mps 735 mmHg 75%
    08:00 +17°C° 0.2 mm 4 mps 735 mmHg 72%
    09:00 +17°C° 0.2 mm 5 mps 735 mmHg 69%
    10:00 +19°C° 0.2 mm 5 mps 735 mmHg 66%
    11:00 +19°C° 0.5 mm 5 mps 735 mmHg 66%
    12:00 +19°C° 0.5 mm 6 mps 735 mmHg 67%
    13:00 +19°C° 0.5 mm 6 mps 735 mmHg 68%
    14:00 +19°C° 0 mm 6 mps 735 mmHg 65%
    15:00 +17°C° 0 mm 6 mps 735 mmHg 63%
    16:00 +17°C° 0 mm 6 mps 735 mmHg 61%
    17:00 +15°C° 0 mm 5 mps 735 mmHg 67%
    18:00 +14°C° 0 mm 4 mps 735 mmHg 73%
    19:00 +13°C° 0 mm 3 mps 735 mmHg 79%
    20:00 +11°C° 0 mm 3 mps 736 mmHg 83%
    21:00 +10°C° 0 mm 2 mps 736 mmHg 88%
    22:00 +9°C° 0 mm 2 mps 736 mmHg 92%
    23:00 +9°C° 0 mm 2 mps 736 mmHg 93%

    26 May, Sunday

    Time Temperature Precipitation Wind Pressure Humidity
    00:00 +9°C° 0 mm 3 mps 736 mmHg 94%
    01:00 +8°C° 0 mm 3 mps 736 mmHg 95%
    02:00 +8°C° 0 mm 3 mps 735 mmHg 94%
    03:00 +8°C° 0 mm 3 mps 735 mmHg 94%
    04:00 +7°C° 0 mm 3 mps 735 mmHg 93%
    05:00 +7°C° 0 mm 4 mps 735 mmHg 89%
    06:00 +8°C° 0 mm 5 mps 735 mmHg 85%
    07:00 +10°C° 0 mm 6 mps 735 mmHg 81%
    08:00 +10°C° 0.1 mm 6 mps 735 mmHg 77%
    09:00 +11°C° 0.1 mm 7 mps 735 mmHg 72%
    10:00 +12°C° 0.1 mm 7 mps 735 mmHg 68%
    11:00 +11°C° 0 mm 7 mps 735 mmHg 68%
    12:00 +11°C° 0 mm 7 mps 735 mmHg 67%
    13:00 +11°C° 0 mm 7 mps 735 mmHg 67%
    14:00 +11°C° 0 mm 7 mps 735 mmHg 66%
    15:00 +11°C° 0 mm 7 mps 734 mmHg 66%
    16:00 +12°C° 0 mm 7 mps 734 mmHg 66%
    17:00 +11°C° 0 mm 6 mps 734 mmHg 69%
    18:00 +10°C° 0 mm 5 mps 734 mmHg 72%
    19:00 +10°C° 0 mm 4 mps 734 mmHg 75%
    20:00 +8°C° 0 mm 4 mps 734 mmHg 78%
    21:00 +8°C° 0 mm 3 mps 734 mmHg 81%
    22:00 +7°C° 0 mm 3 mps 735 mmHg 84%
    23:00 +7°C° 0 mm 3 mps 735 mmHg 85%
    Show more